Погода в Агджабеди

Азербайджан     40°02′31″N   47°26′30″E
темп.,
°C
ветер,
м/с
пор.,
м/с
влажн.,
%
обл.,
%
осадки,
мм/ч
давл.,
гПа
погр.,
м
12 мая, ср
ср1201:00+14ссз22590 0.0 101528
04:00+12сз11700 0.0 101611
07:00+14зсз22610 0.0 1016109
10:00+19ссз22460 0.0 1016804
13:00+23с11380 0.0 10141163
16:00+25ссв11340 0.0 10131257
19:00+25в11420 0.0 101314
22:00+19вюв225257 0.0 101424
13 мая, чт
чт1301:00+16вюв467511 0.0 1014114
04:00+15вюв227998 0.0 101529
07:00+16с11725 0.0 1016113
10:00+22св11504 0.0 1016652
13:00+26ссв11372 0.0 10151022
16:00+29св22320 0.0 10131377
19:00+28юв22394 0.0 101335
22:00+23вюв22501 0.0 101429
14 мая, пт
пт1401:00+20юв33685 0.0 101540
04:00+18св11712 0.0 101511
07:00+20зсз01625 0.0 101652
10:00+25ссв22415 0.0 1016709
13:00+30в33297 0.0 10151468
16:00+32юв45249 0.0 10131965
19:00+29ююв343115 0.0 101358
22:00+22ююв49551 0.0 1015210
15 мая, сб
сб1501:00+19всв22640 0.0 101418
04:00+17вюв11705 0.0 101411
07:00+20ю11615 0.0 101565
10:00+25ссв213457 0.0 1015671
13:00+30всв22177 0.0 10141518
16:00+32юв33160 0.0 10122237
19:00+29вюв22220 0.0 101122
22:00+22ююв45295 0.0 101376
16 мая, вс
вс1601:00+19юв01320 0.0 101311
04:00+18в22354 0.0 101311
07:00+20юз11350 0.0 101336
10:00+26всв11230 0.0 1013580
13:00+31вюв34170 0.0 10111867
16:00+32юв34160 0.0 10092303
19:00+29юв610240 0.0 1008331
22:00+21юв48330 0.0 1009153